Location: Berg
(48.5667°N, 13.9833°E)
Time: 22:57:51
(UTC+00:00)

Cosmos 2151 - Pass Details

Date: 09 April 2020
Orbit: 582 x 600 km, 82.5° (Epoch: 23 May)

Event Time Altitude Azimuth Distance (km) Brightness Sun altitude
Rises 21:01:45 0° 342° (NNW) 2,817 7.6 -27.2°
Reaches altitude 10° 21:04:04 10° 334° (NNW) 1,913 6.5 -27.5°
Enters shadow 21:07:38 34° 278° (W) 963 4.3 -27.8°
